This is the latest recevied weather packets stored in our database for station/object KB1YYC. If no packets are shown the sender has not sent any weather packets the latest 10 day(s).
| Time | Temp. | Humidity | Pressure | Rain* | Wind** | Luminosity | Snow |
|---|---|---|---|---|---|---|---|
| 1778001531 | 28.33° C | 35% | 1005.7 hPa | 0 mm | - | 652 W/m² | - |
| 1778001228 | 27.78° C | 36% | 1005.7 hPa | 0 mm | - | 664 W/m² | - |
| 1778000925 | 27.22° C | 37% | 1005.9 hPa | 0 mm | - | 694 W/m² | - |
| 1778000622 | 27.78° C | 37% | 1006 hPa | 0 mm | - | 706 W/m² | - |
| 1778000317 | 27.78° C | 37% | 1006.1 hPa | 0 mm | - | 691 W/m² | - |
| 1778000013 | 27.22° C | 38% | 1006.3 hPa | 0 mm | - | 706 W/m² | - |
| 1777999709 | 26.67° C | 39% | 1006.3 hPa | 0 mm | - | 660 W/m² | - |
| 1777999406 | 26.67° C | 40% | 1006.4 hPa | 0 mm | - | 710 W/m² | - |
| 1777999104 | 26.67° C | 39% | 1006.5 hPa | 0 mm | - | 746 W/m² | - |
| 1777998803 | 26.67° C | 39% | 1006.6 hPa | 0 mm | - | 739 W/m² | - |
| 1777998500 | 26.67° C | 39% | 1006.8 hPa | 0 mm | - | 752 W/m² | - |
| 1777998196 | 26.67° C | 39% | 1006.8 hPa | 0 mm | - | 733 W/m² | - |
| 1777997894 | 25.56° C | 40% | 1007 hPa | 0 mm | - | 725 W/m² | - |
| 1777997591 | 26.11° C | 40% | 1007.1 hPa | 0 mm | - | 744 W/m² | - |
| 1777997288 | 25° C | 41% | 1007.3 hPa | 0 mm | - | 706 W/m² | - |
| 1777996986 | 25.56° C | 41% | 1007.4 hPa | 0 mm | - | 714 W/m² | - |
| 1777996682 | 25.56° C | 41% | 1007.5 hPa | 0 mm | - | 720 W/m² | - |
| 1777996378 | 25.56° C | 41% | 1007.5 hPa | 0 mm | - | 699 W/m² | - |
| 1777996074 | 25° C | 42% | 1007.6 hPa | 0 mm | - | 730 W/m² | - |
| 1777995771 | 24.44° C | 43% | 1007.8 hPa | 0 mm | - | 577 W/m² | - |
| 1777995467 | 24.44° C | 43% | 1007.6 hPa | 0 mm | - | 658 W/m² | - |
| 1777995165 | 24.44° C | 43% | 1007.6 hPa | 0 mm | - | 640 W/m² | - |
| 1777994862 | 24.44° C | 43% | 1007.8 hPa | 0 mm | - | 653 W/m² | - |
| 1777994558 | 23.89° C | 45% | 1007.9 hPa | 0 mm | - | 701 W/m² | - |
| 1777994252 | 23.89° C | 46% | 1008.1 hPa | 0 mm | - | 692 W/m² | - |
* Rain latest hour (hover to see other rain measurements)
** Current wind speed in m/s (hover to see current wind gust speed)